Location: Haliburton Scout Reserve
(45.0900°N, 78.3200°W)
Time: 17:15:18
(UTC-04:00)

LilacSat-2 - Pass Details

Date: 14 October 2024
Orbit: 466 x 479 km, 97.5° (Epoch: 02 November)

Event Time Altitude Azimuth Distance (km) Brightness Sun altitude
Rises 19:18:49 0° 179° (S) 2,519 ? -9.6°
Reaches altitude 10° 19:20:55 10° 186° (S) 1,649 ? -9.9°
Maximum altitude 19:24:20 46° 260° (W) 659 ? -10.5°
Drops below altitude 10° 19:27:49 10° 335° (NNW) 1,673 ? -11.1°
Sets 19:29:57 0° 342° (NNW) 2,560 ? -11.5°
